Date String (YYYY-MM-DD hh:mm:ss) UTC,Instrument flags,absolute air pressure of the measurement (hPa),sample flow rate (lpm),inlet stack bypass flow (lpm),air temperature of the measurement (°C),ambient temperature measured by the external sensor (°C),aerosol sample conditioner tube jacket temperature (°C),OPC LED temperature (°C),internal box temperature (°C),relative humidity of the measurement (%),span deviation,mass concentration of particles derived from Lorenz-Mie calculation of OPC scattering (μg/m³),mass concentration of particles derived from Lorenz-Mie calculation of OPC scattering (μg/m³),mass concentration of particles derived from Lorenz-Mie calculation of OPC scattering (μg/m³)
DateTimeUTC,F1_M11,P_M11,Q1_M11,Q2_M11,T1_M11,T2_M11,T3_M11,T4_M11,T5_M11,U1_M11,ZSPAN_M11,X2_M11,X0_M11,X1_M11
2024-05-12 05:00:00,SystemResetWarning,0824.9,5.00,000.00,024.4,022.1,000.0,033.2,025.5,024.3,0000.0,0004.44,0012.12,0003.61
2024-05-12 05:01:00,SystemResetWarning,0824.9,4.99,000.00,024.4,022.5,000.0,033.1,025.7,024.3,0000.0,0004.44,0012.16,0003.61
2024-05-12 05:02:00,SystemResetWarning,0824.9,5.00,000.00,024.5,022.8,000.0,033.0,026.0,024.2,0000.0,0004.44,0011.89,0003.60
2024-05-12 05:03:00,SystemResetWarning,0824.9,5.01,000.00,024.5,023.1,000.0,033.0,026.1,024.3,0000.0,0004.46,0011.58,0003.60
2024-05-12 05:04:00,SystemResetWarning,0824.9,5.01,000.00,024.5,023.3,000.0,032.9,026.2,024.3,0000.0,0004.46,0012.32,0003.60
2024-05-12 05:05:00,SystemResetWarning,0824.9,4.99,000.00,024.6,023.6,000.0,032.9,026.3,024.3,0000.0,0004.48,0012.57,0003.60
2024-05-12 05:06:00,SystemResetWarning,0824.9,4.99,000.00,024.6,023.7,000.0,032.9,026.4,024.2,0000.0,0004.49,0012.22,0003.60
2024-05-12 05:07:00,SystemResetWarning,0824.9,5.01,000.00,024.7,023.9,000.0,032.9,026.5,024.0,0000.0,0004.48,0011.04,0003.60
2024-05-12 05:08:00,SystemResetWarning,0824.8,5.01,000.00,024.7,024.0,000.0,032.9,026.5,023.9,0000.0,0004.48,0009.81,0003.59
2024-05-12 05:09:00,SystemResetWarning,0824.8,5.00,000.00,024.8,024.1,000.0,032.9,026.6,023.9,0000.0,0004.50,0009.88,0003.60
2024-05-12 05:10:00,SystemResetWarning,0824.8,4.99,000.00,024.8,024.2,000.0,032.9,026.7,023.8,0000.0,0004.45,0010.04,0003.59
2024-05-12 05:11:00,SystemResetWarning,0824.8,5.00,000.00,024.9,024.3,000.0,033.0,026.7,023.7,0000.0,0004.42,0010.55,0003.59
2024-05-12 05:12:00,SystemResetWarning,0824.8,5.01,000.00,024.9,024.4,000.0,033.0,026.7,023.7,0000.0,0004.43,0010.57,0003.59
2024-05-12 05:13:00,SystemResetWarning,0824.8,4.99,000.00,024.9,024.5,000.0,033.0,026.8,023.5,0000.0,0004.39,0010.55,0003.59
2024-05-12 05:14:00,SystemResetWarning,0824.8,4.99,000.00,025.0,024.5,000.0,033.0,026.8,023.4,0000.0,0004.35,0010.96,0003.59
2024-05-12 05:15:00,SystemResetWarning,0824.8,5.01,000.00,025.0,024.6,000.0,033.1,026.8,023.0,0000.0,0004.31,0010.26,0003.59
2024-05-12 05:16:00,SystemResetWarning,0824.8,5.01,000.00,025.1,024.6,000.0,033.1,026.9,022.9,0000.0,0004.28,0010.68,0003.60
2024-05-12 05:17:00,SystemResetWarning,0824.8,5.00,000.00,025.1,024.7,000.0,033.1,026.9,023.2,0000.0,0004.32,0011.79,0003.62
2024-05-12 05:18:00,SystemResetWarning,0824.8,5.00,000.00,025.2,024.7,000.0,033.2,027.0,023.3,0000.0,0004.33,0011.82,0003.63
2024-05-12 05:19:00,SystemResetWarning,0824.8,5.00,000.00,025.2,024.8,000.0,033.2,027.0,022.6,0000.0,0004.35,0011.93,0003.64
2024-05-12 05:20:00,SystemResetWarning,0824.8,5.00,000.00,025.2,024.8,000.0,033.2,027.1,022.0,0000.0,0004.37,0011.88,0003.66
2024-05-12 05:21:00,SystemResetWarning,0824.8,5.00,000.00,025.3,024.9,000.0,033.3,027.1,021.7,0000.0,0004.42,0012.19,0003.70
2024-05-12 05:22:00,SystemResetWarning,0824.7,5.00,000.00,025.3,024.9,000.0,033.3,027.1,021.6,0000.0,0004.44,0012.12,0003.74
2024-05-12 05:23:00,SystemResetWarning,0824.7,5.01,000.00,025.3,024.9,000.0,033.3,027.2,022.1,0000.0,0004.47,0013.13,0003.76
2024-05-12 05:24:00,SystemResetWarning,0824.7,5.00,000.00,025.4,025.0,000.0,033.4,027.2,021.6,0000.0,0004.50,0013.58,0003.78
2024-05-12 05:25:00,SystemResetWarning,0824.7,5.00,000.00,025.4,025.0,000.0,033.4,027.2,021.3,0000.0,0004.56,0013.57,0003.82
2024-05-12 05:26:00,SystemResetWarning,0824.7,5.00,000.00,025.5,025.0,000.0,033.4,027.3,021.2,0000.0,0004.61,0013.58,0003.85
2024-05-12 05:27:00,SystemResetWarning,0824.7,4.98,000.00,025.4,024.2,000.0,033.5,026.8,021.1,0000.0,0004.66,0013.05,0003.87
2024-05-12 05:28:00,SystemResetWarning,0824.7,5.02,000.00,025.0,022.0,000.0,033.6,025.6,021.6,0000.0,0004.67,0012.42,0003.90
2024-05-12 05:29:00,SystemResetWarning,0824.7,5.01,000.00,024.6,021.7,000.0,033.5,025.3,021.8,0000.0,0004.75,0013.31,0003.96
2024-05-12 05:30:00,SystemResetWarning,0824.7,4.99,000.00,024.5,022.0,000.0,033.4,025.5,021.8,0000.0,0004.84,0014.21,0004.01
2024-05-12 05:31:00,SystemResetWarning,0824.7,5.00,000.00,024.5,022.4,000.0,033.2,025.7,022.0,0000.0,0004.88,0014.30,0004.06
2024-05-12 05:32:00,SystemResetWarning,0824.7,5.00,000.00,024.5,022.7,000.0,033.1,026.0,022.1,0000.0,0004.96,0014.92,0004.09
2024-05-12 05:33:00,SystemResetWarning,0824.7,5.00,000.00,024.6,023.1,000.0,033.1,026.1,022.4,0000.0,0004.99,0014.67,0004.12
2024-05-12 05:34:00,SystemResetWarning,0824.7,5.00,000.00,024.6,023.3,000.0,033.0,026.3,022.0,0000.0,0005.01,0015.33,0004.15
2024-05-12 05:35:00,SystemResetWarning,0824.7,5.01,000.00,024.6,023.6,000.0,033.0,026.4,021.4,0000.0,0005.08,0016.09,0004.20
2024-05-12 05:36:00,SystemResetWarning,0824.7,5.00,000.00,024.7,023.8,000.0,033.0,026.5,021.5,0000.0,0005.09,0015.94,0004.24
2024-05-12 05:37:00,SystemResetWarning,0824.7,5.00,000.00,024.7,023.9,000.0,033.0,026.5,021.3,0000.0,0005.14,0016.07,0004.29
2024-05-12 05:38:00,SystemResetWarning,0824.7,5.00,000.00,024.8,024.1,000.0,033.0,026.6,021.1,0000.0,0005.16,0015.89,0004.33
2024-05-12 05:39:00,SystemResetWarning,0824.7,5.00,000.00,024.8,024.2,000.0,033.0,026.7,020.7,0000.0,0005.18,0015.36,0004.36
2024-05-12 05:40:00,SystemResetWarning,0824.7,5.01,000.00,024.9,024.3,000.0,033.0,026.7,020.7,0000.0,0005.20,0014.66,0004.39
2024-05-12 05:41:00,SystemResetWarning,0824.7,5.00,000.00,024.9,024.4,000.0,033.0,026.7,020.6,0001.7,0005.21,0015.47,0004.41
2024-05-12 05:42:00,SystemResetWarning,0824.7,5.01,000.00,025.0,024.5,000.0,033.1,026.8,020.3,0005.2,0005.23,0015.81,0004.43
2024-05-12 05:43:00,SystemResetWarning,0824.7,5.00,000.00,025.0,024.5,000.0,033.1,026.9,020.2,0004.6,0005.24,0015.00,0004.46
2024-05-12 05:44:00,SystemResetWarning,0824.7,5.00,000.00,025.1,024.6,000.0,033.1,026.9,020.2,0004.2,0005.28,0015.99,0004.49
2024-05-12 05:45:00,SystemResetWarning,0824.7,5.00,000.00,025.1,024.6,000.0,033.2,026.9,020.3,0004.2,0005.34,0014.80,0004.53
2024-05-12 05:46:00,SystemResetWarning,0824.7,5.00,000.00,025.2,024.7,000.0,033.2,027.0,020.0,0004.6,0005.36,0014.25,0004.55
2024-05-12 05:47:00,SystemResetWarning,0824.7,5.00,000.00,025.2,024.8,000.0,033.2,027.0,019.9,0004.6,0005.40,0014.35,0004.57
2024-05-12 05:48:00,SystemResetWarning,0824.7,4.99,000.00,025.2,024.8,000.0,033.3,027.1,019.8,0004.6,0005.41,0015.21,0004.57
2024-05-12 05:49:00,SystemResetWarning,0824.7,5.00,000.00,025.3,024.8,000.0,033.3,027.1,019.6,0004.7,0005.41,0016.10,0004.58
2024-05-12 05:50:00,SystemResetWarning,0824.7,5.00,000.00,025.3,024.9,000.0,033.3,027.1,019.6,0004.7,0005.42,0017.42,0004.58
2024-05-12 05:51:00,SystemResetWarning,0824.7,5.00,000.00,025.3,024.9,000.0,033.4,027.2,019.6,0004.7,0005.40,0017.75,0004.59
2024-05-12 05:52:00,SystemResetWarning,0824.7,5.00,000.00,025.4,024.9,000.0,033.4,027.2,019.6,0004.5,0005.39,0016.55,0004.58
2024-05-12 05:53:00,SystemResetWarning,0824.7,5.01,000.00,025.4,025.0,000.0,033.4,027.2,019.5,0004.2,0005.38,0016.09,0004.56
2024-05-12 05:54:00,SystemResetWarning,0824.7,5.01,000.00,025.5,025.0,000.0,033.4,027.2,019.5,0004.4,0005.40,0016.64,0004.55
2024-05-12 05:55:00,SystemResetWarning,0824.7,5.00,000.00,025.5,025.0,000.0,033.5,027.3,019.6,0004.5,0005.41,0016.03,0004.53
2024-05-12 05:56:00,SystemResetWarning,0824.7,5.00,000.00,025.5,024.8,000.0,033.5,027.1,019.6,0004.6,0005.34,0016.46,0004.51
2024-05-12 05:57:00,SystemResetWarning,0824.6,4.99,000.00,025.2,022.5,000.0,033.6,026.1,020.0,0004.4,0005.32,0016.90,0004.50
2024-05-12 05:58:00,SystemResetWarning,0824.5,5.02,000.00,024.8,021.7,000.0,033.6,025.5,020.6,0004.3,0005.31,0017.23,0004.48
2024-05-12 05:59:00,SystemResetWarning,0824.5,5.00,000.00,024.6,021.9,000.0,033.5,025.5,020.8,0003.3,0005.29,0016.35,0004.47
